3S34 EDDF-EGLL

Flight info

Callsign 3S34
Flight time 1h 11m
Altitude 32000
Route OBOKA5G/25C OBOKA Z29 TORNU DCT ABNED L980 LOGAN
Aircraft B77L/H-SDE1E2E3FGHIJ2J3J4J5M1RWXY/LB1D1

Departure

Time 2026-04-14 07:56
Airport Frankfurt Main Airport (EDDF)

Arrival

Time 2026-04-14 09:07
Airport London Heathrow Airport (EGLL)
Time Latitude Longitude Altitude Speed Heading
2026-04-14 07:11 50.02948 8.56868 365 ft 0 kts 250°
2026-04-14 07:37 50.02949 8.56872 356 ft 2 kts 250°
2026-04-14 07:38 50.02955 8.56898 356 ft 3 kts 250°
2026-04-14 07:38 50.02962 8.56928 363 ft 3 kts 250°
2026-04-14 07:38 50.02969 8.56954 365 ft 2 kts 250°
2026-04-14 07:38 50.02973 8.56979 361 ft 3 kts 271°
2026-04-14 07:39 50.02970 8.57003 366 ft 3 kts 322°
2026-04-14 07:39 50.02953 8.57017 361 ft 3 kts 342°
2026-04-14 07:39 50.02941 8.57023 363 ft 1 kts 340°
2026-04-14 07:39 50.02938 8.57024 364 ft 0 kts 340°
2026-04-14 07:45 50.02941 8.57023 363 ft 1 kts 340°
2026-04-14 07:45 50.02951 8.57017 361 ft 2 kts 340°
2026-04-14 07:45 50.02968 8.57007 366 ft 3 kts 340°
2026-04-14 07:46 50.02992 8.56993 363 ft 4 kts 340°
2026-04-14 07:46 50.03023 8.56976 364 ft 5 kts 340°
2026-04-14 07:46 50.03061 8.56954 364 ft 6 kts 340°
2026-04-14 07:46 50.03104 8.56930 363 ft 7 kts 340°
2026-04-14 07:47 50.03150 8.56904 365 ft 7 kts 340°
2026-04-14 07:47 50.03201 8.56874 360 ft 8 kts 339°
2026-04-14 07:47 50.03262 8.56849 365 ft 10 kts 11°
2026-04-14 07:47 50.03316 8.56918 363 ft 11 kts 72°
2026-04-14 07:48 50.03338 8.57037 362 ft 11 kts 73°
2026-04-14 07:48 50.03367 8.57158 360 ft 12 kts 59°
2026-04-14 07:48 50.03446 8.57207 364 ft 13 kts 22°
2026-04-14 07:48 50.03498 8.57319 367 ft 13 kts 68°
2026-04-14 07:49 50.03528 8.57456 366 ft 13 kts 72°
2026-04-14 07:49 50.03560 8.57592 365 ft 13 kts 69°
2026-04-14 07:49 50.03593 8.57728 370 ft 13 kts 69°
2026-04-14 07:49 50.03626 8.57863 366 ft 13 kts 69°
2026-04-14 07:50 50.03659 8.57998 367 ft 13 kts 69°
2026-04-14 07:50 50.03690 8.58136 370 ft 14 kts 70°
2026-04-14 07:50 50.03722 8.58275 369 ft 14 kts 70°
2026-04-14 07:50 50.03758 8.58421 368 ft 15 kts 69°
2026-04-14 07:51 50.03794 8.58569 373 ft 15 kts 69°
2026-04-14 07:51 50.03854 8.58688 374 ft 15 kts
2026-04-14 07:51 50.03882 8.58680 374 ft 0 kts 343°
2026-04-14 07:54 50.03886 8.58678 371 ft 2 kts 344°
2026-04-14 07:55 50.03899 8.58672 374 ft 5 kts 342°
2026-04-14 07:55 50.03963 8.58630 377 ft 11 kts 320°
2026-04-14 07:55 50.03970 8.58518 377 ft 13 kts 252°
2026-04-14 07:55 50.03890 8.58174 373 ft 77 kts 250°
2026-04-14 07:56 50.03600 8.56810 669 ft 169 kts 255°
2026-04-14 07:56 50.03209 8.55023 2165 ft 190 kts 253°
2026-04-14 07:56 50.02715 8.52868 2742 ft 229 kts 253°
2026-04-14 07:56 50.02003 8.50617 3516 ft 249 kts 230°
2026-04-14 07:57 50.00488 8.49184 4471 ft 268 kts 195°
2026-04-14 07:57 49.98623 8.48906 4998 ft 273 kts 181°
2026-04-14 07:57 49.96699 8.48796 4967 ft 275 kts 186°
2026-04-14 07:57 49.94894 8.47970 4987 ft 272 kts 214°
2026-04-14 07:58 49.93498 8.46025 5064 ft 271 kts 227°
2026-04-14 07:58 49.92163 8.43951 6180 ft 273 kts 226°
2026-04-14 07:58 49.90803 8.41899 7572 ft 271 kts 227°
2026-04-14 07:58 49.89739 8.39532 8756 ft 270 kts 249°
2026-04-14 07:59 49.89275 8.36693 10021 ft 275 kts 263°
2026-04-14 07:59 49.89188 8.33680 10936 ft 288 kts 269°
2026-04-14 07:59 49.89218 8.30422 11352 ft 316 kts 274°
2026-04-14 07:59 49.89745 8.26901 11602 ft 352 kts 290°
2026-04-14 08:00 49.90920 8.23430 12323 ft 372 kts 300°
2026-04-14 08:00 49.92328 8.20071 13416 ft 379 kts 301°
2026-04-14 08:00 49.93803 8.16640 14471 ft 383 kts 303°
2026-04-14 08:00 49.95637 8.13611 15100 ft 393 kts 317°
2026-04-14 08:01 49.97764 8.10849 15974 ft 402 kts 318°
2026-04-14 08:01 49.99929 8.08059 17020 ft 406 kts 318°
2026-04-14 08:01 50.02109 8.05224 18075 ft 411 kts 318°
2026-04-14 08:01 50.04302 8.02337 18988 ft 417 kts 317°
2026-04-14 08:02 50.06466 7.99460 19828 ft 422 kts 317°
2026-04-14 08:02 50.08706 7.96462 20684 ft 427 kts 317°
2026-04-14 08:02 50.10973 7.93414 21533 ft 433 kts 317°
2026-04-14 08:02 50.13268 7.90321 22361 ft 439 kts 316°
2026-04-14 08:03 50.15588 7.87192 23187 ft 444 kts 316°
2026-04-14 08:03 50.17946 7.84008 23925 ft 451 kts 316°
2026-04-14 08:03 50.20299 7.80827 24618 ft 455 kts 316°
2026-04-14 08:03 50.22697 7.77584 25379 ft 458 kts 316°
2026-04-14 08:04 50.25125 7.74342 26123 ft 461 kts 319°
2026-04-14 08:04 50.27875 7.71694 26763 ft 471 kts 334°
2026-04-14 08:04 50.30957 7.69854 27455 ft 476 kts 338°
2026-04-14 08:04 50.34057 7.67976 28092 ft 479 kts 335°
2026-04-14 08:05 50.37135 7.65909 28721 ft 483 kts 334°
2026-04-14 08:05 50.40215 7.63768 29349 ft 487 kts 333°
2026-04-14 08:05 50.43318 7.61600 29931 ft 490 kts 333°
2026-04-14 08:05 50.46440 7.59430 30619 ft 489 kts 334°
2026-04-14 08:06 50.49537 7.57291 31424 ft 483 kts 334°
2026-04-14 08:06 50.52607 7.55174 32097 ft 481 kts 334°
2026-04-14 08:06 50.55668 7.53049 32151 ft 479 kts 333°
2026-04-14 08:07 50.60560 7.48545 32178 ft 474 kts 324°
2026-04-14 08:07 50.65954 7.42633 32167 ft 468 kts 324°
2026-04-14 08:08 50.71364 7.37002 32171 ft 463 kts 326°
2026-04-14 08:08 50.73937 7.33990 32183 ft 462 kts 315°
2026-04-14 08:08 50.75948 7.30016 32175 ft 466 kts 298°
2026-04-14 08:09 50.78796 7.20789 32179 ft 469 kts 296°
2026-04-14 08:09 50.81214 7.13107 32186 ft 470 kts 296°
2026-04-14 08:10 50.84668 7.02407 32182 ft 468 kts 296°
2026-04-14 08:10 50.87572 6.93389 32185 ft 465 kts 296°
2026-04-14 08:11 50.90503 6.84286 32184 ft 463 kts 296°
2026-04-14 08:11 50.92930 6.76734 32198 ft 462 kts 296°
2026-04-14 08:12 50.95839 6.67645 32181 ft 462 kts 296°
2026-04-14 08:12 50.98749 6.58514 32191 ft 462 kts 296°
2026-04-14 08:13 51.01641 6.49408 32164 ft 462 kts 296°
2026-04-14 08:13 51.04523 6.40298 32168 ft 461 kts 296°
2026-04-14 08:14 51.07398 6.31177 32171 ft 461 kts 296°
2026-04-14 08:14 51.10248 6.22106 32175 ft 461 kts 296°
2026-04-14 08:15 51.13086 6.12948 32181 ft 461 kts 295°
2026-04-14 08:15 51.15174 6.03314 32182 ft 460 kts 285°
2026-04-14 08:16 51.16670 5.93535 32162 ft 460 kts 285°
2026-04-14 08:16 51.18290 5.83680 32183 ft 459 kts 288°
2026-04-14 08:17 51.20611 5.74287 32175 ft 458 kts 293°
2026-04-14 08:17 51.23122 5.64935 32182 ft 457 kts 294°
2026-04-14 08:18 51.25603 5.55599 32162 ft 456 kts 294°
2026-04-14 08:18 51.28052 5.46267 32159 ft 455 kts 294°
2026-04-14 08:19 51.30482 5.36938 32161 ft 455 kts 293°
2026-04-14 08:19 51.32907 5.27591 32172 ft 455 kts 293°
2026-04-14 08:20 51.35318 5.18258 32180 ft 453 kts 294°
2026-04-14 08:20 51.37697 5.09013 32179 ft 452 kts 294°
2026-04-14 08:21 51.40062 4.99790 32181 ft 452 kts 294°
2026-04-14 08:21 51.42432 4.90508 32184 ft 451 kts 294°
2026-04-14 08:22 51.44801 4.81190 32184 ft 451 kts 294°
2026-04-14 08:22 51.47158 4.71876 32179 ft 450 kts 294°
2026-04-14 08:23 51.49190 4.63822 32174 ft 449 kts 294°
2026-04-14 08:23 51.51510 4.54586 32153 ft 448 kts 294°
2026-04-14 08:24 51.53836 4.45290 32158 ft 448 kts 294°
2026-04-14 08:24 51.56151 4.35999 32160 ft 448 kts 294°
2026-04-14 08:25 51.58458 4.26700 32163 ft 448 kts 294°
2026-04-14 08:25 51.60760 4.17381 32162 ft 448 kts 294°
2026-04-14 08:26 51.63063 4.08022 32167 ft 449 kts 293°
2026-04-14 08:26 51.65316 3.98823 32166 ft 449 kts 293°
2026-04-14 08:27 51.67585 3.89523 32167 ft 449 kts 293°
2026-04-14 08:27 51.69862 3.80148 32161 ft 448 kts 294°
2026-04-14 08:28 51.72124 3.70793 32167 ft 447 kts 294°
2026-04-14 08:28 51.74369 3.61473 32168 ft 446 kts 294°
2026-04-14 08:29 51.76613 3.52115 32181 ft 446 kts 293°
2026-04-14 08:29 51.78831 3.42824 32169 ft 446 kts 293°
2026-04-14 08:30 51.81060 3.33452 32163 ft 444 kts 293°
2026-04-14 08:30 51.83234 3.24155 32167 ft 443 kts 290°
2026-04-14 08:31 51.84343 3.14279 32177 ft 448 kts 278°
2026-04-14 08:31 51.83911 3.00546 32174 ft 454 kts 268°
2026-04-14 08:32 51.83203 2.90682 32156 ft 454 kts 268°
2026-04-14 08:32 51.82517 2.80541 32167 ft 453 kts 269°
2026-04-14 08:33 51.81849 2.70413 32163 ft 452 kts 269°
2026-04-14 08:33 51.81166 2.60316 32163 ft 452 kts 268°
2026-04-14 08:34 51.80465 2.50216 32164 ft 452 kts 268°
2026-04-14 08:34 51.79759 2.40151 32148 ft 446 kts 269°
2026-04-14 08:35 51.79064 2.30321 32156 ft 438 kts 269°
2026-04-14 08:35 51.78379 2.20606 32154 ft 439 kts 269°
2026-04-14 08:36 51.77792 2.10791 32166 ft 440 kts 270°
2026-04-14 08:36 51.77230 2.00943 32164 ft 441 kts 270°
2026-04-14 08:37 51.76654 1.91233 32152 ft 440 kts 270°
2026-04-14 08:37 51.76058 1.81456 32162 ft 438 kts 270°
2026-04-14 08:38 51.75452 1.71626 32156 ft 436 kts 270°
2026-04-14 08:38 51.74847 1.61953 32162 ft 435 kts 270°
2026-04-14 08:39 51.74225 1.52237 32152 ft 435 kts 270°
2026-04-14 08:39 51.73592 1.42567 31553 ft 428 kts 270°
2026-04-14 08:40 51.73277 1.37821 30926 ft 424 kts 270°
2026-04-14 08:40 51.72966 1.33125 30426 ft 418 kts 270°
2026-04-14 08:40 51.72657 1.28439 30267 ft 424 kts 270°
2026-04-14 08:40 51.72345 1.23735 29991 ft 420 kts 270°
2026-04-14 08:41 51.72029 1.19039 29307 ft 415 kts 270°
2026-04-14 08:41 51.71717 1.14435 28600 ft 411 kts 270°
2026-04-14 08:41 51.71407 1.09874 27916 ft 407 kts 269°
2026-04-14 08:41 51.71099 1.05354 27219 ft 404 kts 269°
2026-04-14 08:42 51.70792 1.00870 26526 ft 402 kts 268°
2026-04-14 08:42 51.70491 0.96515 25856 ft 400 kts 268°
2026-04-14 08:42 51.70183 0.92085 25340 ft 395 kts 268°
2026-04-14 08:42 51.69877 0.87709 24761 ft 392 kts 267°
2026-04-14 08:43 51.69574 0.83354 24137 ft 391 kts 267°
2026-04-14 08:43 51.69270 0.79004 23481 ft 390 kts 266°
2026-04-14 08:43 51.68966 0.74672 22831 ft 388 kts 266°
2026-04-14 08:43 51.68661 0.70376 22251 ft 380 kts 266°
2026-04-14 08:44 51.68363 0.66213 21334 ft 369 kts 265°
2026-04-14 08:44 51.68070 0.62131 20190 ft 365 kts 265°
2026-04-14 08:44 51.67786 0.58174 19587 ft 350 kts 264°
2026-04-14 08:44 51.67513 0.54414 19361 ft 326 kts 264°
2026-04-14 08:45 51.67257 0.50901 19083 ft 306 kts 264°
2026-04-14 08:45 51.67015 0.47567 18630 ft 294 kts 264°
2026-04-14 08:45 51.66813 0.44333 17961 ft 288 kts 266°
2026-04-14 08:45 51.66311 0.41231 17152 ft 289 kts 243°
2026-04-14 08:46 51.65003 0.38775 16381 ft 294 kts 218°
2026-04-14 08:46 51.63137 0.37465 15664 ft 299 kts 193°
2026-04-14 08:46 51.61049 0.37560 14952 ft 304 kts 168°
2026-04-14 08:46 51.59154 0.39065 14261 ft 308 kts 142°
2026-04-14 08:47 51.57794 0.41734 13543 ft 309 kts 116°
2026-04-14 08:47 51.57248 0.45043 12833 ft 306 kts 91°
2026-04-14 08:47 51.57597 0.48355 12157 ft 300 kts 65°
2026-04-14 08:47 51.58738 0.51023 11495 ft 290 kts 39°
2026-04-14 08:48 51.60423 0.52678 11102 ft 271 kts 14°
2026-04-14 08:48 51.62221 0.53017 10719 ft 261 kts 350°
2026-04-14 08:48 51.63906 0.52141 10150 ft 253 kts 320°
2026-04-14 08:48 51.64994 0.50017 9425 ft 248 kts 295°
2026-04-14 08:49 51.65391 0.47338 8596 ft 249 kts 268°
2026-04-14 08:49 51.65295 0.44534 7812 ft 251 kts 265°
2026-04-14 08:49 51.65172 0.41754 7473 ft 249 kts 264°
2026-04-14 08:49 51.65041 0.38951 7281 ft 252 kts 264°
2026-04-14 08:50 51.64906 0.36105 7174 ft 258 kts 264°
2026-04-14 08:50 51.64770 0.33217 7138 ft 258 kts 264°
2026-04-14 08:50 51.64638 0.30356 7134 ft 254 kts 264°
2026-04-14 08:50 51.64508 0.27569 7123 ft 252 kts 264°
2026-04-14 08:51 51.64395 0.24756 7128 ft 252 kts 264°
2026-04-14 08:51 51.64269 0.21926 7125 ft 254 kts 264°
2026-04-14 08:51 51.64134 0.19084 7123 ft 255 kts 264°
2026-04-14 08:51 51.63997 0.16229 7130 ft 256 kts 264°
2026-04-14 08:52 51.63860 0.13372 7129 ft 256 kts 264°
2026-04-14 08:52 51.63724 0.10524 7132 ft 256 kts 264°
2026-04-14 08:52 51.63588 0.07663 7125 ft 256 kts 264°
2026-04-14 08:52 51.63453 0.04805 7131 ft 255 kts 264°
2026-04-14 08:53 51.63320 0.01963 7131 ft 255 kts 264°
2026-04-14 08:53 51.63188 -0.00786 7110 ft 254 kts 264°
2026-04-14 08:53 51.63052 -0.03607 7101 ft 253 kts 263°
2026-04-14 08:53 51.62917 -0.06435 7108 ft 252 kts 264°
2026-04-14 08:54 51.62784 -0.09208 7115 ft 252 kts 263°
2026-04-14 08:54 51.62646 -0.12053 7099 ft 252 kts 263°
2026-04-14 08:54 51.62510 -0.14831 7107 ft 252 kts 263°
2026-04-14 08:54 51.62372 -0.17650 7103 ft 253 kts 263°
2026-04-14 08:55 51.62234 -0.20470 7106 ft 253 kts 263°
2026-04-14 08:55 51.62096 -0.23287 7103 ft 253 kts 264°
2026-04-14 08:55 51.61957 -0.26106 7102 ft 254 kts 263°
2026-04-14 08:55 51.61817 -0.28937 7099 ft 254 kts 263°
2026-04-14 08:56 51.61674 -0.31770 7133 ft 254 kts 263°
2026-04-14 08:56 51.61530 -0.34620 7128 ft 255 kts 263°
2026-04-14 08:56 51.61388 -0.37451 7133 ft 255 kts 263°
2026-04-14 08:56 51.61244 -0.40307 7136 ft 255 kts 263°
2026-04-14 08:57 51.61102 -0.43080 7129 ft 255 kts 263°
2026-04-14 08:57 51.60954 -0.45986 7121 ft 255 kts 263°
2026-04-14 08:57 51.60807 -0.48835 7120 ft 255 kts 263°
2026-04-14 08:57 51.60663 -0.51643 7136 ft 255 kts 263°
2026-04-14 08:58 51.60516 -0.54476 7109 ft 253 kts 263°
2026-04-14 08:58 51.60369 -0.57301 7042 ft 255 kts 263°
2026-04-14 08:58 51.60218 -0.60185 6684 ft 261 kts 263°
2026-04-14 08:58 51.60064 -0.63084 6300 ft 260 kts 263°
2026-04-14 08:59 51.59906 -0.65972 5911 ft 258 kts 262°
2026-04-14 08:59 51.59729 -0.68833 5525 ft 256 kts 261°
2026-04-14 08:59 51.59611 -0.70726 5257 ft 254 kts 261°
2026-04-14 08:59 51.59436 -0.73537 4892 ft 249 kts 261°
2026-04-14 09:00 51.59066 -0.77034 4299 ft 230 kts 240°
2026-04-14 09:00 51.58438 -0.78360 3990 ft 218 kts 217°
2026-04-14 09:00 51.56678 -0.79687 3533 ft 208 kts 192°
2026-04-14 09:00 51.55718 -0.79814 3256 ft 203 kts 180°
2026-04-14 09:01 51.54360 -0.79707 2986 ft 189 kts 178°
2026-04-14 09:01 51.53119 -0.79587 2979 ft 173 kts 178°
2026-04-14 09:01 51.51904 -0.79478 2972 ft 172 kts 178°
2026-04-14 09:01 51.50727 -0.79367 3001 ft 165 kts 178°
2026-04-14 09:02 51.49623 -0.79158 2983 ft 158 kts 166°
2026-04-14 09:02 51.48684 -0.78280 2983 ft 158 kts 143°
2026-04-14 09:02 51.47999 -0.76856 2987 ft 167 kts 124°
2026-04-14 09:02 51.47602 -0.75083 2963 ft 177 kts 98°
2026-04-14 09:03 51.47664 -0.73109 3012 ft 179 kts 96°
2026-04-14 09:03 51.47674 -0.71094 2896 ft 183 kts 97°
2026-04-14 09:03 51.47678 -0.69103 2668 ft 178 kts 97°
2026-04-14 09:03 51.47684 -0.67176 2421 ft 165 kts 97°
2026-04-14 09:04 51.47690 -0.65329 2224 ft 167 kts 97°
2026-04-14 09:04 51.47695 -0.63464 1960 ft 164 kts 97°
2026-04-14 09:04 51.47704 -0.61681 1753 ft 158 kts 97°
2026-04-14 09:04 51.47708 -0.59924 1557 ft 158 kts 96°
2026-04-14 09:05 51.47715 -0.58133 1308 ft 160 kts 95°
2026-04-14 09:05 51.47722 -0.56410 1113 ft 157 kts 94°
2026-04-14 09:05 51.47728 -0.54628 859 ft 156 kts 95°
2026-04-14 09:05 51.47733 -0.52897 696 ft 154 kts 95°
2026-04-14 09:06 51.47720 -0.51189 484 ft 155 kts 98°
2026-04-14 09:06 51.47735 -0.49424 241 ft 159 kts 91°
2026-04-14 09:06 51.47752 -0.47684 109 ft 151 kts 96°
2026-04-14 09:06 51.47757 -0.46154 95 ft 121 kts 88°
2026-04-14 09:07 51.47760 -0.45000 97 ft 85 kts 89°
2026-04-14 09:07 51.47764 -0.44236 90 ft 51 kts 89°
2026-04-14 09:07 51.47742 -0.43870 92 ft 17 kts 134°
2026-04-14 09:07 51.47671 -0.43795 95 ft 12 kts 150°
2026-04-14 09:08 51.47600 -0.43820 94 ft 13 kts 244°
2026-04-14 09:08 51.47592 -0.43943 91 ft 0 kts 269°
2026-04-14 09:12 51.47589 -0.43987 91 ft 7 kts 259°
2026-04-14 09:12 51.47555 -0.44050 95 ft 8 kts 204°
2026-04-14 09:12 51.47499 -0.44062 95 ft 8 kts 183°
2026-04-14 09:13 51.47488 -0.44063 95 ft 0 kts 183°
2026-04-14 09:14 51.47441 -0.44062 95 ft 13 kts 181°
2026-04-14 09:14 51.47350 -0.44062 96 ft 13 kts 179°
2026-04-14 09:14 51.47259 -0.44061 95 ft 13 kts 180°
2026-04-14 09:15 51.47168 -0.44059 95 ft 13 kts 179°
2026-04-14 09:15 51.47077 -0.44059 95 ft 13 kts 180°
2026-04-14 09:15 51.46985 -0.44060 95 ft 13 kts 180°
2026-04-14 09:15 51.46953 -0.44050 94 ft 1 kts 148°
2026-04-14 09:16 51.46945 -0.44003 95 ft 6 kts 90°
2026-04-14 09:16 51.46946 -0.43932 95 ft 7 kts 89°
2026-04-14 09:16 51.46946 -0.43914 95 ft 0 kts 89°
2026-04-14 09:16 51.46946 -0.43907 95 ft 0 kts 89°